2022/07/17 23:19:05+0000,-35.47,-45.71,-32.72,-50.24,-54.22,-55.15
2022/07/17 23:19:57+0000,-34.63,-44.16,-32.90,-50.54,-54.68,-55.35
2022/07/17 23:20:49+0000,-34.14,-44.90,-33.08,-51.70,-53.86,-55.19
2022/07/17 23:21:49+0000,-35.44,-45.12,-32.47,-51.74,-54.24,-55.64
2022/07/17 23:22:41+0000,-34.19,-45.70,-32.80,-50.33,-55.24,-55.09
2022/07/17 23:23:34+0000,-35.04,-45.81,-33.06,-51.22,-54.13,-55.55
2022/07/17 23:24:26+0000,-35.53,-45.55,-32.72,-50.49,-54.05,-54.86
2022/07/17 23:25:18+0000,-35.76,-47.44,-32.43,-50.73,-54.09,-55.33
2022/07/17 23:26:10+0000,-34.96,-44.51,-32.25,-50.84,-54.27,-54.85
2022/07/17 23:27:02+0000,-35.39,-46.47,-32.73,-50.44,-52.89,-54.85
2022/07/17 23:27:54+0000,-35.81,-45.86,-33.21,-49.67,-54.02,-55.54
2022/07/17 23:28:46+0000,-35.40,-44.69,-33.00,-49.88,-53.48,-55.07
2022/07/17 23:29:38+0000,-35.41,-46.77,-32.42,-50.22,-53.58,-54.31
2022/07/17 23:30:30+0000,-35.03,-46.59,-33.16,-50.75,-54.47,-54.95
2022/07/17 23:31:29+0000,-35.47,-47.31,-32.75,-50.76,-53.67,-55.09
2022/07/17 23:32:21+0000,-35.81,-46.28,-32.59,-50.86,-53.32,-55.51
2022/07/17 23:33:13+0000,-34.50,-47.48,-32.97,-49.89,-54.18,-55.33
2022/07/17 23:34:05+0000,-35.12,-46.54,-32.36,-51.36,-53.70,-55.31
2022/07/17 23:34:57+0000,-34.62,-45.99,-33.01,-51.00,-54.38,-55.00
2022/07/17 23:35:49+0000,-35.06,-46.44,-33.07,-51.14,-53.60,-54.98
2022/07/17 23:36:41+0000,-35.58,-46.55,-32.61,-50.38,-54.27,-54.57
2022/07/17 23:37:33+0000,-34.60,-46.88,-32.97,-50.12,-53.44,-55.15
2022/07/17 23:38:25+0000,-35.65,-46.46,-33.36,-49.70,-54.22,-55.46
2022/07/17 23:39:17+0000,-35.46,-48.02,-33.52,-50.33,-54.53,-55.68
2022/07/17 23:40:09+0000,-35.49,-47.67,-33.49,-51.21,-54.20,-55.14
2022/07/17 23:41:09+0000,-34.85,-47.10,-33.41,-51.31,-54.17,-55.52
2022/07/17 23:42:01+0000,-34.93,-47.15,-33.14,-50.53,-54.44,-55.38
2022/07/17 23:42:53+0000,-35.53,-47.47,-33.21,-51.31,-54.29,-55.72
2022/07/17 23:43:45+0000,-34.87,-47.81,-32.69,-50.20,-54.04,-55.50
2022/07/17 23:44:37+0000,-34.85,-46.91,-33.32,-50.19,-54.75,-55.36
2022/07/17 23:45:29+0000,-34.68,-45.96,-33.07,-50.18,-53.93,-54.56
2022/07/17 23:46:21+0000,-35.03,-46.24,-33.22,-52.56,-53.53,-55.27
2022/07/17 23:47:13+0000,-35.61,-47.98,-33.49,-51.78,-54.26,-55.08
2022/07/17 23:48:05+0000,-35.74,-46.38,-33.55,-52.16,-53.70,-55.10
2022/07/17 23:48:57+0000,-35.53,-46.48,-32.45,-50.42,-53.97,-55.01
2022/07/17 23:49:49+0000,-35.53,-46.10,-33.07,-51.88,-53.88,-54.86
2022/07/17 23:50:41+0000,-34.64,-46.05,-33.18,-51.04,-54.33,-54.92
2022/07/17 23:51:40+0000,-34.72,-46.63,-33.00,-50.76,-53.91,-54.98
2022/07/17 23:52:32+0000,-35.68,-46.18,-33.52,-51.09,-54.04,-55.12
2022/07/17 23:53:24+0000,-34.21,-46.97,-33.37,-51.10,-53.84,-56.01
2022/07/17 23:54:16+0000,-34.98,-46.21,-33.34,-51.20,-53.97,-54.47
2022/07/17 23:55:08+0000,-35.65,-47.51,-33.44,-50.85,-53.66,-55.33
2022/07/17 23:56:00+0000,-35.42,-46.85,-32.96,-50.39,-53.55,-54.63
2022/07/17 23:56:52+0000,-35.36,-47.04,-33.61,-51.24,-53.97,-55.90
2022/07/17 23:57:44+0000,-34.84,-47.05,-32.76,-49.71,-53.48,-55.57
2022/07/17 23:58:36+0000,-36.07,-46.66,-33.39,-51.96,-53.63,-55.36
2022/07/17 23:59:28+0000,-35.35,-47.30,-32.77,-50.80,-53.75,-55.15
2022/07/18 00:00:20+0000,-34.16,-45.43,-33.17,-50.20,-53.38,-54.73
2022/07/18 00:01:23+0000,-35.25,-47.03,-33.67,-50.77,-53.72,-55.11
2022/07/18 00:02:15+0000,-35.00,-45.73,-33.40,-51.12,-53.95,-55.83
2022/07/18 00:03:07+0000,-35.74,-46.93,-32.72,-50.61,-53.85,-55.25
2022/07/18 00:03:59+0000,-35.53,-46.44,-33.14,-50.66,-53.62,-55.31
2022/07/18 00:04:51+0000,-35.83,-47.15,-33.30,-51.54,-51.89,-55.56
2022/07/18 00:05:43+0000,-34.88,-46.55,-33.06,-50.41,-52.13,-55.37
2022/07/18 00:06:35+0000,-34.45,-47.32,-32.74,-51.34,-53.46,-55.23
2022/07/18 00:07:27+0000,-35.26,-46.88,-33.17,-50.48,-53.84,-55.66
2022/07/18 00:08:19+0000,-34.50,-47.01,-33.21,-51.55,-53.60,-54.92
2022/07/18 00:09:11+0000,-34.17,-45.80,-33.00,-50.32,-53.68,-55.15
2022/07/18 00:10:03+0000,-35.13,-46.50,-33.18,-51.20,-53.53,-55.27
2022/07/18 00:11:02+0000,-36.17,-46.38,-32.77,-50.43,-53.79,-55.01
2022/07/18 00:11:54+0000,-34.12,-46.00,-33.25,-50.98,-54.42,-55.09
2022/07/18 00:12:46+0000,-34.04,-46.97,-33.09,-48.68,-54.20,-55.40
2022/07/18 00:13:38+0000,-34.98,-46.74,-33.00,-49.02,-53.94,-54.87
2022/07/18 00:14:30+0000,-34.02,-46.59,-33.45,-51.13,-54.01,-54.77
2022/07/18 00:15:22+0000,-34.98,-46.70,-33.78,-50.89,-53.73,-54.96
2022/07/18 00:16:14+0000,-34.19,-46.96,-32.88,-50.14,-54.22,-55.06
2022/07/18 00:17:06+0000,-35.01,-47.32,-33.44,-51.32,-53.95,-55.16
2022/07/18 00:17:58+0000,-35.06,-47.19,-33.22,-51.84,-53.60,-55.11
2022/07/18 00:18:50+0000,-36.04,-45.97,-32.56,-50.94,-54.72,-55.37
2022/07/18 00:19:43+0000,-34.38,-46.49,-33.16,-50.33,-54.44,-55.28
2022/07/18 00:20:35+0000,-34.07,-46.13,-32.72,-49.76,-54.51,-55.47
2022/07/18 00:21:34+0000,-33.69,-46.43,-33.03,-51.57,-53.97,-55.06
2022/07/18 00:22:26+0000,-34.40,-46.07,-32.86,-50.73,-53.42,-55.12
2022/07/18 00:23:18+0000,-34.07,-45.84,-33.74,-51.35,-53.93,-13.51
2022/07/18 00:24:10+0000,-34.69,-46.90,-32.92,-49.57,-53.40,-55.46
2022/07/18 00:25:02+0000,-34.33,-47.45,-33.66,-50.72,-53.39,-55.33
2022/07/18 00:25:54+0000,-35.09,-46.67,-33.65,-51.19,-53.44,-13.13
2022/07/18 00:26:46+0000,-35.17,-46.05,-33.77,-50.17,-53.41,-55.12
2022/07/18 00:27:38+0000,-34.78,-45.89,-33.26,-50.82,-54.59,-54.99
2022/07/18 00:28:30+0000,-34.97,-45.79,-32.89,-50.84,-53.52,-14.06
2022/07/18 00:29:22+0000,-35.11,-46.46,-33.28,-51.22,-53.66,-13.13
2022/07/18 00:30:14+0000,-35.07,-45.69,-32.82,-49.94,-54.17,-55.10
2022/07/18 00:31:13+0000,-34.75,-46.51,-33.32,-50.66,-54.05,-55.07
2022/07/18 00:32:05+0000,-35.61,-46.80,-33.23,-51.87,-54.02,-55.69
2022/07/18 00:32:57+0000,-34.86,-46.17,-32.70,-50.67,-53.82,-55.50
2022/07/18 00:33:49+0000,-34.97,-45.71,-33.22,-51.82,-54.36,-55.18
2022/07/18 00:34:41+0000,-35.31,-46.11,-33.10,-50.63,-54.33,-55.61
2022/07/18 00:35:33+0000,-35.44,-46.19,-32.70,-51.38,-53.80,-55.13
2022/07/18 00:36:25+0000,-35.23,-46.99,-32.58,-49.56,-53.70,-55.33
2022/07/18 00:37:17+0000,-35.12,-47.21,-32.95,-50.65,-53.36,-55.38
2022/07/18 00:38:09+0000,-34.26,-46.85,-33.00,-50.51,-53.83,-55.53
2022/07/18 00:39:01+0000,-34.02,-46.39,-33.16,-50.26,-54.34,-55.51
2022/07/18 00:39:53+0000,-35.52,-46.62,-33.42,-50.16,-53.95,-55.33
2022/07/18 00:40:45+0000,-34.65,-47.09,-32.69,-49.63,-54.00,-55.23
2022/07/18 00:41:43+0000,-34.87,-46.63,-32.91,-50.37,-53.78,-55.32
2022/07/18 00:42:35+0000,-34.84,-46.90,-32.77,-52.00,-53.78,-55.37
2022/07/18 00:43:28+0000,-35.48,-47.17,-33.44,-50.47,-54.01,-55.13
2022/07/18 00:44:20+0000,-35.50,-46.11,-32.75,-51.71,-53.97,-54.89
2022/07/18 00:45:12+0000,-35.17,-45.44,-33.22,-50.55,-54.21,-55.62
2022/07/18 00:46:04+0000,-34.56,-47.56,-33.13,-51.85,-54.11,-55.85
2022/07/18 00:46:56+0000,-34.02,-46.86,-32.98,-50.09,-54.32,-55.10
2022/07/18 00:47:48+0000,-35.73,-47.21,-33.40,-50.48,-53.37,-55.44
2022/07/18 00:48:40+0000,-35.05,-47.43,-32.90,-50.47,-53.49,-55.66
2022/07/18 00:49:32+0000,-35.73,-45.38,-32.98,-51.70,-53.72,-55.53
2022/07/18 00:50:24+0000,-35.29,-46.46,-33.17,-50.88,-53.83,-54.85
2022/07/18 00:51:28+0000,-34.87,-45.77,-32.94,-51.28,-53.17,-55.11
2022/07/18 00:52:20+0000,-35.47,-46.00,-33.29,-52.10,-54.52,-55.62
2022/07/18 00:53:12+0000,-35.68,-46.96,-32.92,-49.91,-53.77,-55.40
2022/07/18 00:54:04+0000,-34.89,-45.99,-32.80,-51.84,-53.94,-55.20
2022/07/18 00:54:56+0000,-35.24,-46.40,-33.15,-49.72,-54.94,-55.12
2022/07/18 00:55:48+0000,-34.98,-46.54,-32.12,-49.36,-54.37,-55.25
2022/07/18 00:56:40+0000,-35.24,-45.46,-33.47,-49.75,-54.19,-55.71
2022/07/18 00:57:32+0000,-35.61,-47.67,-33.27,-50.88,-53.58,-55.63
2022/07/18 00:58:24+0000,-35.23,-46.80,-33.23,-50.90,-53.51,-55.27
2022/07/18 00:59:16+0000,-35.23,-47.25,-32.81,-49.79,-53.80,-55.43
2022/07/18 01:00:09+0000,-34.89,-46.56,-33.18,-50.21,-54.41,-55.38
2022/07/18 01:01:08+0000,-34.92,-47.54,-32.90,-49.28,-54.05,-54.84
2022/07/18 01:02:00+0000,-35.26,-45.98,-32.95,-49.71,-53.61,-54.93
2022/07/18 01:02:52+0000,-35.51,-46.92,-33.09,-50.58,-53.53,-55.11
2022/07/18 01:03:44+0000,-35.73,-46.04,-33.47,-48.02,-54.09,-55.09
2022/07/18 01:04:36+0000,-35.18,-46.13,-33.16,-48.21,-53.69,-55.70
2022/07/18 01:05:29+0000,-35.23,-46.65,-33.26,-51.19,-53.93,-55.46
2022/07/18 01:06:21+0000,-35.10,-46.17,-33.27,-50.46,-53.69,-55.19
2022/07/18 01:07:13+0000,-35.17,-46.30,-33.39,-48.98,-53.53,-55.37
2022/07/18 01:08:05+0000,-35.02,-46.92,-33.58,-49.24,-53.56,-55.09
2022/07/18 01:08:57+0000,-35.41,-47.12,-33.56,-49.34,-53.45,-55.55
2022/07/18 01:09:49+0000,-35.24,-46.57,-33.20,-51.64,-53.99,-55.48
2022/07/18 01:10:41+0000,-35.12,-47.01,-33.16,-50.19,-53.82,-55.17
2022/07/18 01:11:40+0000,-34.23,-46.44,-33.20,-50.38,-53.57,-55.51
2022/07/18 01:12:32+0000,-35.57,-46.77,-34.08,-49.22,-53.95,-55.61
2022/07/18 01:13:24+0000,-35.02,-46.96,-33.58,-49.54,-53.79,-55.29
2022/07/18 01:14:16+0000,-35.60,-46.11,-33.47,-50.70,-53.56,-54.50
2022/07/18 01:15:08+0000,-33.93,-46.90,-32.89,-49.36,-53.21,-55.72
2022/07/18 01:16:00+0000,-34.55,-46.79,-33.22,-49.60,-53.66,-55.09
2022/07/18 01:16:52+0000,-35.22,-47.15,-33.73,-49.14,-54.82,-54.89
2022/07/18 01:17:44+0000,-34.97,-44.94,-32.99,-50.37,-53.49,-55.25
2022/07/18 01:18:36+0000,-35.49,-46.00,-33.17,-50.55,-53.28,-55.48
2022/07/18 01:19:28+0000,-34.16,-46.09,-33.37,-49.52,-53.37,-54.03
2022/07/18 01:20:20+0000,-34.19,-45.80,-32.99,-48.56,-54.42,-55.30
2022/07/18 01:21:20+0000,-34.79,-45.72,-33.31,-51.52,-54.40,-55.30
2022/07/18 01:22:12+0000,-35.44,-46.96,-33.65,-50.67,-54.43,-54.93
2022/07/18 01:23:04+0000,-33.24,-45.10,-32.96,-52.31,-54.06,-55.07
2022/07/18 01:23:56+0000,-34.76,-46.67,-33.28,-48.72,-53.76,-54.99
2022/07/18 01:24:48+0000,-35.57,-46.79,-33.67,-51.95,-54.15,-55.44
2022/07/18 01:25:40+0000,-35.24,-46.40,-33.37,-50.73,-54.07,-55.09
2022/07/18 01:26:32+0000,-36.23,-46.80,-33.25,-50.95,-54.17,-55.26
2022/07/18 01:27:24+0000,-34.55,-47.07,-33.38,-48.82,-53.64,-54.98
2022/07/18 01:28:16+0000,-35.06,-46.80,-33.55,-49.76,-54.13,-55.17
2022/07/18 01:29:08+0000,-34.32,-46.84,-33.34,-49.68,-53.82,-55.27
2022/07/18 01:30:00+0000,-34.98,-47.15,-33.74,-48.97,-54.34,-55.58
2022/07/18 01:31:00+0000,-35.76,-47.58,-33.38,-49.36,-53.43,-54.51
2022/07/18 01:31:52+0000,-35.75,-47.03,-33.35,-49.45,-53.71,-54.82
2022/07/18 01:32:44+0000,-35.45,-45.87,-33.86,-51.35,-53.30,-54.55
2022/07/18 01:33:36+0000,-36.01,-47.08,-33.11,-51.17,-53.69,-55.06
2022/07/18 01:34:28+0000,-35.48,-46.37,-32.89,-49.40,-53.41,-55.28
2022/07/18 01:35:20+0000,-34.60,-46.46,-33.25,-52.29,-54.08,-55.44
2022/07/18 01:36:12+0000,-34.88,-46.65,-33.38,-50.89,-54.36,-54.87
2022/07/18 01:37:04+0000,-35.21,-47.02,-33.35,-51.99,-54.14,-55.37
2022/07/18 01:37:56+0000,-35.47,-45.63,-33.44,-51.70,-54.70,-55.65
2022/07/18 01:38:48+0000,-35.33,-47.36,-33.37,-50.72,-54.41,-55.37
2022/07/18 01:39:41+0000,-34.60,-45.70,-33.53,-50.70,-53.44,-55.55
2022/07/18 01:40:33+0000,-34.99,-46.43,-32.91,-49.18,-53.61,-54.84
2022/07/18 01:41:32+0000,-35.99,-46.11,-33.22,-49.16,-54.00,-55.22
2022/07/18 01:42:24+0000,-34.73,-46.57,-33.78,-49.21,-54.11,-55.69
2022/07/18 01:43:16+0000,-35.16,-46.82,-33.00,-50.47,-53.67,-55.41
2022/07/18 01:44:08+0000,-35.19,-45.90,-33.13,-48.05,-53.83,-55.35
2022/07/18 01:45:00+0000,-36.63,-46.91,-33.22,-51.63,-52.85,-54.57
2022/07/18 01:45:52+0000,-35.48,-45.70,-33.52,-51.92,-53.70,-55.60
2022/07/18 01:46:44+0000,-35.50,-46.65,-33.51,-49.66,-53.38,-55.53
2022/07/18 01:47:36+0000,-35.15,-45.64,-33.17,-50.89,-54.49,-55.19
2022/07/18 01:48:28+0000,-34.31,-44.76,-33.17,-46.73,-54.04,-54.91
2022/07/18 01:49:20+0000,-34.40,-46.24,-33.08,-51.37,-53.75,-55.39
2022/07/18 01:50:12+0000,-35.51,-45.55,-33.70,-50.73,-53.25,-54.89
2022/07/18 01:51:11+0000,-34.90,-47.02,-33.22,-50.70,-53.58,-55.38
2022/07/18 01:52:03+0000,-35.63,-45.73,-33.70,-46.50,-53.66,-55.14
2022/07/18 01:52:55+0000,-35.26,-45.92,-33.49,-46.49,-53.84,-55.21
2022/07/18 01:53:47+0000,-35.05,-46.74,-33.83,-50.07,-53.99,-54.66
2022/07/18 01:54:39+0000,-35.45,-45.78,-32.76,-50.13,-53.75,-55.14
2022/07/18 01:55:31+0000,-35.58,-45.89,-33.12,-46.77,-54.15,-55.10
2022/07/18 01:56:23+0000,-35.20,-46.17,-33.90,-46.32,-54.10,-55.64
2022/07/18 01:57:16+0000,-35.33,-45.74,-32.99,-50.44,-54.50,-54.67
2022/07/18 01:58:08+0000,-35.60,-45.24,-32.90,-49.93,-54.47,-55.51
2022/07/18 01:59:00+0000,-34.78,-45.56,-32.81,-51.01,-54.71,-55.64
2022/07/18 01:59:52+0000,-34.75,-45.83,-33.01,-51.44,-54.63,-55.31
2022/07/18 02:00:44+0000,-34.87,-46.38,-33.31,-48.91,-54.41,-54.81
2022/07/18 02:01:43+0000,-34.36,-46.42,-33.40,-49.54,-54.38,-54.96
2022/07/18 02:02:35+0000,-35.65,-45.97,-33.26,-50.25,-54.80,-55.45
2022/07/18 02:03:27+0000,-35.17,-45.68,-33.65,-50.29,-54.39,-55.32
2022/07/18 02:04:19+0000,-34.88,-45.90,-33.34,-51.23,-54.74,-55.26
2022/07/18 02:05:11+0000,-35.24,-47.08,-32.86,-50.57,-55.02,-55.03
2022/07/18 02:06:03+0000,-35.27,-46.54,-33.16,-51.25,-54.86,-55.17
2022/07/18 02:06:55+0000,-33.22,-46.39,-33.26,-50.35,-55.11,-54.85
2022/07/18 02:07:47+0000,-34.25,-46.38,-33.53,-49.73,-54.35,-54.96
2022/07/18 02:08:39+0000,-34.40,-45.91,-33.74,-50.08,-55.15,-55.26
2022/07/18 02:09:31+0000,-34.41,-46.24,-33.21,-50.89,-54.63,-54.84
2022/07/18 02:10:23+0000,-35.20,-46.70,-33.21,-50.91,-54.56,-54.82
2022/07/18 02:11:22+0000,-35.43,-46.60,-33.47,-51.27,-54.34,-55.26
2022/07/18 02:12:14+0000,-34.57,-45.90,-32.82,-49.51,-53.97,-54.78
2022/07/18 02:13:06+0000,-35.50,-45.56,-33.60,-50.20,-53.80,-54.77
2022/07/18 02:13:58+0000,-34.35,-46.21,-33.58,-50.66,-54.27,-54.80
2022/07/18 02:14:50+0000,-34.34,-45.47,-33.43,-50.95,-54.14,-54.57
2022/07/18 02:15:43+0000,-35.31,-44.68,-33.42,-50.78,-53.92,-54.93
2022/07/18 02:16:35+0000,-34.42,-45.31,-33.35,-50.91,-54.00,-54.42
2022/07/18 02:17:27+0000,-33.41,-45.95,-33.34,-50.71,-54.03,-54.53
2022/07/18 02:18:19+0000,-34.94,-45.53,-33.46,-51.20,-53.63,-54.88
2022/07/18 02:19:11+0000,-33.87,-45.69,-33.08,-50.21,-53.39,-54.61
2022/07/18 02:20:03+0000,-34.60,-45.73,-33.17,-50.96,-53.83,-55.00
2022/07/18 02:21:01+0000,-35.50,-46.90,-33.56,-45.91,-53.65,-55.22
2022/07/18 02:21:53+0000,-34.81,-45.53,-33.50,-46.16,-53.95,-54.36
2022/07/18 02:22:45+0000,-34.06,-45.99,-33.58,-48.64,-54.02,-55.27
2022/07/18 02:23:37+0000,-34.85,-46.38,-33.52,-49.98,-53.90,-55.51
2022/07/18 02:24:29+0000,-34.90,-46.49,-33.59,-45.83,-54.07,-54.67
2022/07/18 02:25:21+0000,-35.33,-46.31,-33.00,-45.99,-54.73,-54.48
2022/07/18 02:26:13+0000,-36.05,-45.16,-33.18,-49.57,-54.29,-54.78
2022/07/18 02:27:05+0000,-35.45,-45.81,-33.54,-50.92,-54.91,-54.97
2022/07/18 02:27:57+0000,-33.96,-46.10,-33.30,-45.72,-54.37,-54.94
2022/07/18 02:28:49+0000,-34.20,-46.65,-33.14,-51.81,-54.22,-54.76
2022/07/18 02:29:41+0000,-33.93,-45.63,-33.23,-49.46,-53.75,-55.06
2022/07/18 02:30:34+0000,-32.62,-45.79,-33.96,-50.84,-53.84,-54.72
2022/07/18 02:31:32+0000,-34.28,-46.85,-33.44,-45.96,-54.45,-54.52
2022/07/18 02:32:24+0000,-34.69,-45.32,-33.25,-46.70,-53.95,-54.71
2022/07/18 02:33:16+0000,-34.87,-44.33,-33.07,-49.71,-53.83,-54.67
2022/07/18 02:34:08+0000,-33.91,-46.02,-33.45,-50.28,-53.90,-54.95
2022/07/18 02:35:00+0000,-33.95,-46.03,-33.48,-49.99,-54.52,-54.66
2022/07/18 02:35:52+0000,-34.02,-46.09,-33.49,-49.74,-53.89,-54.72
2022/07/18 02:36:44+0000,-33.72,-45.89,-33.29,-49.98,-54.33,-54.70
2022/07/18 02:37:36+0000,-34.69,-46.46,-33.54,-50.40,-54.46,-54.54
2022/07/18 02:38:28+0000,-34.48,-46.65,-33.43,-46.65,-54.15,-54.37
2022/07/18 02:39:20+0000,-34.56,-44.38,-33.22,-51.42,-54.05,-54.86
2022/07/18 02:40:13+0000,-34.80,-45.50,-33.73,-49.59,-54.77,-54.75
2022/07/18 02:41:11+0000,-34.09,-45.78,-33.36,-50.09,-54.53,-55.12
2022/07/18 02:42:03+0000,-34.56,-46.37,-33.57,-46.22,-54.32,-55.22
2022/07/18 02:42:55+0000,-34.70,-46.80,-33.38,-46.39,-54.78,-54.49
2022/07/18 02:43:47+0000,-34.70,-45.18,-34.02,-50.85,-54.49,-54.56
2022/07/18 02:44:39+0000,-34.37,-45.44,-33.84,-48.27,-54.06,-54.81
2022/07/18 02:45:31+0000,-34.76,-45.70,-34.32,-46.21,-54.06,-54.68
2022/07/18 02:46:23+0000,-33.68,-47.21,-33.73,-46.07,-54.15,-54.34
2022/07/18 02:47:15+0000,-34.72,-46.36,-34.01,-50.39,-54.88,-55.41
2022/07/18 02:48:07+0000,-34.04,-46.06,-34.10,-50.07,-54.55,-55.50
2022/07/18 02:48:59+0000,-34.14,-46.41,-33.95,-46.17,-55.17,-55.42
2022/07/18 02:49:51+0000,-34.31,-46.67,-33.35,-47.04,-54.18,-54.83
2022/07/18 02:50:43+0000,-34.31,-45.23,-33.72,-50.76,-54.79,-55.03
2022/07/18 02:51:43+0000,-34.42,-45.80,-33.97,-50.67,-55.35,-55.76
2022/07/18 02:52:35+0000,-34.34,-46.49,-33.98,-52.89,-55.36,-55.04
2022/07/18 02:53:27+0000,-34.16,-45.76,-33.72,-47.11,-55.45,-55.81
2022/07/18 02:54:19+0000,-35.28,-44.52,-33.73,-52.45,-55.47,-55.18
2022/07/18 02:55:11+0000,-34.20,-46.37,-33.97,-51.52,-54.84,-55.35
2022/07/18 02:56:03+0000,-32.95,-46.63,-33.52,-46.10,-55.18,-55.16
2022/07/18 02:56:56+0000,-34.41,-46.98,-34.02,-46.77,-55.18,-55.24
2022/07/18 02:57:48+0000,-34.26,-45.95,-33.69,-50.16,-55.01,-54.86
2022/07/18 02:58:40+0000,-33.86,-45.64,-33.88,-49.38,-54.83,-55.23
2022/07/18 02:59:32+0000,-34.86,-45.45,-33.45,-46.71,-54.62,-55.13
2022/07/18 03:00:24+0000,-33.74,-46.38,-33.30,-46.80,-55.12,-55.54
2022/07/18 03:01:24+0000,-34.62,-46.34,-34.16,-46.91,-54.80,-55.48
2022/07/18 03:02:16+0000,-34.35,-45.65,-33.37,-48.90,-54.88,-55.41
2022/07/18 03:03:08+0000,-33.40,-45.56,-33.99,-50.34,-54.34,-55.21
2022/07/18 03:04:00+0000,-33.55,-45.54,-33.36,-46.57,-54.74,-54.96
2022/07/18 03:04:52+0000,-34.63,-46.24,-33.57,-46.22,-54.44,-55.24
2022/07/18 03:05:44+0000,-33.77,-46.21,-33.57,-49.80,-53.85,-54.78
2022/07/18 03:06:36+0000,-34.24,-45.18,-33.32,-50.89,-54.41,-55.15
2022/07/18 03:07:28+0000,-33.76,-45.63,-33.96,-45.97,-54.41,-54.64
2022/07/18 03:08:20+0000,-33.65,-45.72,-33.59,-50.67,-54.08,-54.97
2022/07/18 03:09:12+0000,-33.35,-45.57,-33.76,-50.83,-54.49,-55.32
2022/07/18 03:10:04+0000,-33.25,-45.88,-33.55,-51.95,-54.44,-54.81
2022/07/18 03:11:05+0000,-32.72,-46.40,-33.97,-52.20,-54.90,-54.93
2022/07/18 03:11:57+0000,-34.27,-46.24,-34.10,-46.85,-54.74,-55.23
2022/07/18 03:12:49+0000,-34.33,-44.75,-33.89,-53.00,-54.26,-55.69
2022/07/18 03:13:41+0000,-33.63,-45.98,-34.03,-48.93,-55.07,-54.95
2022/07/18 03:14:33+0000,-34.48,-45.96,-33.87,-51.53,-55.09,-55.22
2022/07/18 03:15:25+0000,-33.76,-45.91,-33.62,-45.20,-54.47,-55.41
2022/07/18 03:16:17+0000,-33.99,-46.26,-33.75,-45.94,-54.96,-55.15
2022/07/18 03:17:09+0000,-33.88,-46.28,-33.78,-48.71,-54.36,-55.24
2022/07/18 03:18:01+0000,-34.26,-45.65,-33.94,-46.26,-54.17,-55.20
2022/07/18 03:18:53+0000,-33.92,-45.44,-33.96,-45.22,-54.63,-55.16
2022/07/18 03:19:45+0000,-33.82,-45.04,-34.22,-49.54,-54.37,-54.85
2022/07/18 03:20:37+0000,-34.44,-47.66,-34.34,-50.90,-54.73,-54.97
2022/07/18 03:21:37+0000,-33.85,-46.07,-34.54,-49.49,-54.73,-55.34
2022/07/18 03:22:30+0000,-32.81,-45.07,-33.88,-45.97,-54.70,-54.89
2022/07/18 03:23:22+0000,-32.75,-46.79,-34.17,-49.48,-54.39,-55.16
2022/07/18 03:24:14+0000,-34.03,-42.81,-33.64,-48.95,-54.73,-55.18
2022/07/18 03:25:06+0000,-34.27,-46.33,-34.17,-48.88,-54.80,-55.38
2022/07/18 03:25:58+0000,-31.44,-45.25,-33.72,-49.59,-55.13,-54.78
2022/07/18 03:26:50+0000,-31.96,-43.11,-33.91,-52.31,-54.70,-55.26
2022/07/18 03:27:42+0000,-31.72,-42.42,-34.06,-49.54,-54.56,-55.54
2022/07/18 03:28:34+0000,-32.26,-45.43,-33.70,-51.57,-54.70,-55.14
2022/07/18 03:29:26+0000,-31.59,-43.22,-33.65,-49.33,-54.68,-55.50
2022/07/18 03:30:18+0000,-31.77,-44.78,-34.00,-50.74,-54.97,-55.23
2022/07/18 03:31:16+0000,-32.17,-45.16,-33.43,-50.41,-54.56,-54.69
2022/07/18 03:32:08+0000,-32.53,-45.05,-33.53,-50.89,-54.69,-54.91
2022/07/18 03:33:00+0000,-29.18,-42.77,-34.16,-47.47,-53.81,-55.50
2022/07/18 03:33:52+0000,-31.05,-44.07,-34.04,-50.28,-55.01,-55.12
2022/07/18 03:34:44+0000,-29.31,-43.97,-34.43,-50.83,-54.87,-55.09
2022/07/18 03:35:36+0000,-31.23,-45.16,-33.98,-51.21,-54.57,-54.63
2022/07/18 03:36:28+0000,-29.23,-43.08,-34.39,-48.10,-53.84,-55.82
2022/07/18 03:37:20+0000,-29.01,-43.99,-33.45,-51.47,-55.27,-55.23
2022/07/18 03:38:13+0000,-30.47,-43.53,-34.15,-48.62,-54.66,-55.31
2022/07/18 03:39:05+0000,-29.85,-43.44,-34.07,-51.82,-55.19,-55.19
2022/07/18 03:39:57+0000,-30.67,-43.76,-33.99,-49.45,-55.88,-55.40
2022/07/18 03:40:49+0000,-29.35,-42.05,-33.33,-51.50,-55.16,-55.33
2022/07/18 03:41:47+0000,-29.29,-44.01,-33.77,-46.79,-54.73,-55.37
2022/07/18 03:42:39+0000,-30.48,-44.01,-33.55,-47.66,-54.69,-55.48
2022/07/18 03:43:31+0000,-29.25,-44.01,-33.44,-49.76,-55.81,-55.01
2022/07/18 03:44:23+0000,-31.19,-44.03,-33.49,-50.76,-54.67,-55.22
2022/07/18 03:45:15+0000,-31.24,-44.73,-33.16,-49.74,-55.09,-54.91
2022/07/18 03:46:07+0000,-27.93,-44.07,-33.77,-49.88,-55.49,-54.76
2022/07/18 03:46:59+0000,-29.89,-44.31,-33.73,-47.82,-55.35,-55.63
2022/07/18 03:47:51+0000,-29.93,-43.24,-33.85,-48.54,-55.44,-55.55
2022/07/18 03:48:43+0000,-30.00,-42.71,-32.97,-49.04,-55.10,-55.71
2022/07/18 03:49:36+0000,-29.26,-43.66,-33.64,-51.80,-55.00,-54.78
2022/07/18 03:50:28+0000,-30.71,-42.21,-33.47,-49.14,-55.09,-55.05
2022/07/18 03:51:31+0000,-30.54,-42.96,-32.99,-48.67,-54.96,-55.61
2022/07/18 03:52:23+0000,-28.99,-43.84,-33.34,-50.14,-55.24,-55.07
2022/07/18 03:53:15+0000,-29.45,-43.69,-33.20,-49.23,-55.06,-55.28
2022/07/18 03:54:07+0000,-29.18,-43.51,-33.69,-49.97,-54.66,-55.08
2022/07/18 03:54:59+0000,-28.40,-43.37,-33.30,-48.96,-55.75,-55.46
2022/07/18 03:55:51+0000,-29.90,-44.38,-33.75,-51.17,-54.75,-55.27
2022/07/18 03:56:43+0000,-29.29,-43.02,-33.44,-48.22,-55.32,-55.10
2022/07/18 03:57:35+0000,-29.40,-43.42,-33.35,-51.71,-55.54,-55.54
2022/07/18 03:58:27+0000,-29.73,-43.13,-33.38,-49.60,-54.85,-55.32
2022/07/18 03:59:20+0000,-28.54,-42.95,-32.96,-51.78,-55.60,-56.10
2022/07/18 04:00:12+0000,-28.45,-42.39,-33.65,-48.25,-55.35,-56.21
2022/07/18 04:01:11+0000,-28.20,-42.89,-33.40,-49.07,-54.52,-55.48
2022/07/18 04:02:03+0000,-28.23,-41.93,-34.09,-51.69,-55.58,-54.88
2022/07/18 04:02:55+0000,-30.36,-42.81,-33.63,-47.74,-55.09,-55.02
2022/07/18 04:03:47+0000,-30.67,-42.98,-33.18,-51.16,-55.24,-55.18
2022/07/18 04:04:39+0000,-29.04,-41.29,-33.45,-48.86,-55.14,-55.08
2022/07/18 04:05:31+0000,-29.93,-42.01,-33.42,-48.64,-55.18,-55.16
2022/07/18 04:06:24+0000,-29.60,-41.23,-33.44,-49.68,-55.03,-55.13
2022/07/18 04:07:16+0000,-30.53,-42.59,-33.58,-48.56,-55.02,-55.62
2022/07/18 04:08:08+0000,-28.44,-43.08,-33.65,-49.79,-55.34,-55.46
2022/07/18 04:09:00+0000,-28.39,-42.42,-33.81,-50.72,-54.57,-55.35
2022/07/18 04:09:52+0000,-29.26,-43.34,-33.60,-50.65,-55.67,-55.85
2022/07/18 04:10:44+0000,-29.08,-42.75,-33.77,-48.47,-54.49,-55.13
2022/07/18 04:11:44+0000,-29.97,-42.73,-33.63,-48.35,-55.02,-55.06
2022/07/18 04:12:36+0000,-30.03,-43.24,-33.80,-48.93,-55.12,-54.75
2022/07/18 04:13:28+0000,-28.86,-41.61,-33.71,-49.47,-54.94,-55.68
2022/07/18 04:14:20+0000,-30.76,-44.17,-33.36,-50.24,-54.48,-55.36
2022/07/18 04:15:12+0000,-29.95,-43.95,-33.77,-47.45,-54.97,-55.10
2022/07/18 04:16:04+0000,-31.03,-44.70,-33.95,-51.23,-54.59,-54.73
2022/07/18 04:16:56+0000,-28.95,-43.25,-33.52,-47.98,-54.69,-55.70
2022/07/18 04:17:48+0000,-29.67,-42.88,-33.29,-51.50,-54.96,-55.41
2022/07/18 04:18:40+0000,-29.47,-42.26,-33.62,-46.18,-54.47,-55.44
2022/07/18 04:19:32+0000,-29.33,-43.00,-33.92,-49.23,-55.05,-55.10
2022/07/18 04:20:24+0000,-30.17,-41.88,-34.06,-49.77,-54.59,-55.23
2022/07/18 04:21:24+0000,-28.92,-41.47,-33.67,-50.22,-55.09,-55.17
2022/07/18 04:22:16+0000,-28.88,-42.73,-33.94,-49.87,-55.02,-54.96
2022/07/18 04:23:08+0000,-29.60,-43.15,-34.43,-42.64,-54.70,-55.51
2022/07/18 04:24:00+0000,-29.87,-42.89,-34.37,-47.84,-54.39,-55.29
2022/07/18 04:24:52+0000,-29.64,-43.33,-34.98,-48.44,-54.14,-54.37
2022/07/18 04:25:44+0000,-30.12,-42.42,-34.76,-47.86,-54.25,-54.05
2022/07/18 04:26:36+0000,-30.04,-44.72,-34.72,-49.15,-54.91,-54.36
2022/07/18 04:27:28+0000,-30.38,-41.79,-34.46,-49.02,-54.89,-54.45
2022/07/18 04:28:20+0000,-28.99,-43.34,-34.58,-50.44,-54.19,-54.53
2022/07/18 04:29:12+0000,-29.11,-43.56,-34.59,-46.41,-54.68,-54.84
2022/07/18 04:30:04+0000,-30.71,-43.27,-34.69,-50.92,-53.65,-55.20
2022/07/18 04:31:04+0000,-30.39,-43.09,-35.44,-50.99,-54.24,-54.19
2022/07/18 04:31:56+0000,-29.80,-42.93,-35.08,-50.09,-53.88,-54.53
2022/07/18 04:32:48+0000,-28.56,-42.19,-33.74,-44.72,-54.07,-54.39